Regional Weather Roundup
Issued by NWS

Home | Current Version | Previous Version | Text Only | Print | Product List | Glossary On
Versions: 1 2 3 4 5 6 7 8 9 10 11 12 13 14 15 16 17 18 19 20 21 22 23 24 25 26 27 28 29 30 31 32 33 34 35 36 37 38 39 40 41 42 43 44 45 46 47 48 49 50
000
ASUS43 KFSD 030110
RWRSD

WEATHER ROUNDUP FOR SOUTH DAKOTA
NATIONAL WEATHER SERVICE SIOUX FALLS SD
800 PM CDT MON MAY 02 2016

NOTE: "FAIR" INDICATES FEW OR NO CLOUDS BELOW 12,000 FEET WITH NO
SIGNIFICANT WEATHER AND/OR OBSTRUCTIONS TO VISIBILITY.


SDZ001>005-009-010-012>017-030200-
NORTHWEST AND NORTH CENTRAL SOUTH DAKOTA

CITY           SKY/WX    TMP DP  RH WIND       PRES   REMARKS
BUFFALO          N/A     65  29  25 NE18      29.93R
FAITH            N/A     53  44  71 S10       29.98R
MOBRIDGE       PTCLDY    63  44  50 N3        29.96R
$$

SDZ012>016-024>037-041>051-057-063-072>074-030200-
SOUTHWEST AND SOUTH CENTRAL SOUTH DAKOTA

CITY           SKY/WX    TMP DP  RH WIND       PRES   REMARKS
RAPID CTY ARPT LGT RAIN  59  38  45 NW16G26   29.97F
PIERRE         CLOUDY    54  43  66 NW7       29.98R
CUSTER         CLOUDY    52  28  39 NW9G23    30.07R
PHILIP         MOCLDY    50  47  89 S5        29.99F
PINE RIDGE     MOCLDY    53  40  61 E12       30.01S
WINNER         CLOUDY    55  46  71 E5        30.01R
$$

SDZ004>011-016>023-039-040-030200-
NORTHEAST SOUTH DAKOTA

CITY           SKY/WX    TMP DP  RH WIND       PRES   REMARKS
ABERDEEN       CLEAR     61  38  42 CALM      30.00R
WATERTOWN      PTCLDY    60  36  40 W7        29.98S
BROOKINGS      CLEAR     59  36  42 SW7       29.99S
SISSETON         N/A     63  34  33 N8        29.97R
$$

SDZ017-020-022-023-036>040-048>070-030200-
SOUTHEAST SOUTH DAKOTA

CITY           SKY/WX    TMP DP  RH WIND       PRES   REMARKS
SIOUX FALLS    MOCLDY    57  39  51 S9        30.01S
HURON          CLOUDY    57  43  59 W7        30.00R
CHAMBERLAIN    CLOUDY    56  51  83 SE5       30.00S
MITCHELL       PTCLDY    55  46  71 SW6       30.01R
YANKTON        PTCLDY    61  39  44 SE5       30.01S
$$

ABBREVIATIONS USED IN REMARKS
   TC - TEMPERATURE IN CELSIUS
  WCI - WIND CHILL INDEX
   HX - HEAT INDEX
  VSB - VISIBILITY





USA.gov is the U.S. government's official web portal to all federal, state and local government web resources and services.